STARLINK-35169

Last updated on Tue Sep 16 2025 00:02:08 GMT+0000 (Coordinated Universal Time)

1 65465U 25195H 25257.90105305 -.00704132 00000+0 -45089-2 0 9998 2 65465 53.1557 0.8335 0003235 33.6122 326.5104 15.77473279 2996
UTC large
Height (km)
Speed (km/s)
/
Latitude / Longitude
Inclination (degrees)
Orbital Period (minutes)
Azimuth
Elevation
Range (km)
Doppler Factor

Next 0 passes for location: London (51.5072 / 0.1276)

Sorry there are no passes over London.